Home   Weather   Spydeberg   Past weeks

Flag for Norway Past Weather in Spydeberg, Norway — Yesterday and Last 2 Weeks

48 °F

Passing clouds.

Feels Like: 46 °F
Forecast: 44 / 50 °F
Wind: 5 mph from Southwest

Location: Rygge

Current Time: Oct 27, 2016 at 3:11:33 AM

Latest Report: Oct 27, 2016 at 2:20 AM

Visibility: 4 mi

Pressure: 29.98 "Hg

Humidity: 94%

Dew Point: 46 °F

Location of SpydebergLocation

Past Weather in Spydeberg — Graph


Spydeberg Temperature Yesterday

Maximum temperature yesterday: 50 °F (at 11:20 PM)
Minimum temperature yesterday: 37 °F (at 3:50 AM)
Average temperature yesterday: 43 °F

High & Low Weather Summary for the Past Weeks

High50 °F (Oct 26, 11:20 PM)100% (Oct 16, 6:20 PM)30.57 "Hg (Oct 16, 6:20 PM)
Low34 °F (Oct 14, 6:50 AM)66% (Oct 15, 1:20 PM)29.98 "Hg (Oct 26, 11:50 PM)
Average42 °F87%30.32 "Hg
* Reported Oct 12 1:20 AM — Oct 27 1:50 AM, Spydeberg, Weather by CustomWeather, © 2016

Note: Actual official high and low records may vary slightly from our data, if they occured in-between our weather recording intervals... More about our weather records


Spydeberg Weather History for the Previous 24 Hours

Scroll right to see more
Time TempWeatherWind HumidityBarometerVisibility
1:50 AM
Thu, Oct 27
48 °FMostly cloudy.6 mph100%29.98 "Hg4 mi
1:20 AM50 °FMostly cloudy.7 mph94%29.98 "Hg4 mi
12:50 AM50 °FLow clouds.9 mph94%29.98 "Hg3 mi
12:20 AM50 °FFog.12 mph94%29.98 "Hg2 mi
11:50 PM
Wed, Oct 26
50 °FFog.8 mph94%29.98 "Hg3 mi
11:20 PM50 °FLow clouds.13 mph94%30.01 "Hg3 mi
10:50 PM48 °FFog.16 mph100%30.01 "Hg2 mi
10:20 PM48 °FFog.16 mph100%30.01 "Hg2 mi
9:50 PM48 °FFog.16 mph94%30.01 "Hg3 mi
9:20 PM48 °FDrizzle. Low clouds.16 mph94%30.04 "Hg2 mi
8:50 PM48 °FFog.16 mph94%30.04 "Hg2 mi
8:20 PM48 °FDrizzle. Low clouds.16 mph94%30.04 "Hg3 mi
7:50 PM48 °FLow clouds.12 mph94%30.07 "Hg3 mi
7:20 PM46 °FLow clouds.14 mph100%30.07 "Hg4 mi
6:50 PM46 °FDrizzle. Low clouds.13 mph93%30.09 "Hg5 mi
6:20 PM46 °FLight rain. Passing clouds.14 mph93%30.09 "HgN/A
5:50 PM46 °FLight rain. Passing clouds.14 mph93%30.09 "HgN/A
5:20 PM46 °FLight rain. Partly sunny.16 mph93%30.12 "HgN/A
4:50 PM46 °FLight rain. More clouds than sun.13 mph87%30.12 "HgN/A
4:20 PM46 °FLight rain. Mostly cloudy.14 mph93%30.12 "HgN/A
3:50 PM46 °FDrizzle. Mostly cloudy.14 mph93%30.15 "HgN/A
3:20 PM46 °FPartly sunny.13 mph93%30.15 "HgN/A
2:50 PM46 °FPartly sunny.13 mph93%30.15 "HgN/A
2:20 PM46 °FPartly sunny.14 mph93%30.18 "HgN/A
1:50 PM46 °FPartly sunny.13 mph87%30.18 "HgN/A
1:20 PM46 °FPartly sunny.12 mph87%30.18 "HgN/A
12:50 PM46 °FBroken clouds.7 mph82%30.21 "HgN/A
12:20 PM45 °FMore clouds than sun.6 mph87%30.21 "HgN/A
11:50 AM45 °FMore clouds than sun.6 mph81%30.21 "HgN/A
11:20 AM43 °FMostly cloudy.2 mph87%30.21 "HgN/A
10:50 AM43 °FPartly sunny.6 mph81%30.24 "HgN/A
10:20 AM41 °FScattered clouds.6 mph87%30.24 "HgN/A
9:50 AM39 °FScattered clouds.5 mph93%30.24 "HgN/A
9:20 AM39 °FSunny.5 mph87%30.24 "Hg10 mi
8:50 AM37 °FSunny.5 mph93%30.24 "Hg10 mi
8:20 AM37 °FClear.5 mph93%30.24 "Hg10 mi
7:50 AM37 °FClear.3 mph93%30.24 "Hg10 mi
7:20 AM37 °FClear.5 mph87%30.24 "Hg10 mi
6:50 AM37 °FClear.6 mph87%30.24 "Hg10 mi
6:20 AM37 °FClear.6 mph93%30.24 "Hg10 mi
5:50 AM37 °FPassing clouds.5 mph93%30.24 "HgN/A
5:20 AM39 °FPassing clouds.5 mph87%30.24 "HgN/A
4:50 AM37 °FPassing clouds.5 mph93%30.24 "HgN/A
4:20 AM37 °FChilly.6 mph93%30.27 "HgN/A
3:50 AM37 °FChilly.6 mph93%30.27 "HgN/A
3:20 AM39 °FChilly.5 mph93%30.27 "Hg2 mi
Weather by CustomWeather, © 2016

See weather overviewHow to use our weather pages